User: anonymous   Login
Location: Milano
(45.4642°N, 9.1900°E)
Time: 11:42:45
(UTC+02:00)
Language:

ISS - Orbit

View from above orbital plane
View from above orbital plane
View from above satellite
View from above satellite

Ground track
Ground track

The orbit data is extracted from the following two-line orbital elements,

1 25544U 98067A   24201.07332801  .00019703  00000-0  35153-3 0  9993
2 25544  51.6387 157.3690 0010423  82.2061  20.4593 15.50018577463490
Epoch (UTC): 19 July 2024 01:45:35
Eccentricity: 0.0010423
inclination: 51.6387°
perigee height: 409 km
apogee height: 424 km
right ascension of ascending node: 157.3690°
argument of perigee: 82.2061°
revolutions per day: 15.50018577
mean anomaly at epoch: 20.4593°
orbit number at epoch: 46349

The dashed part of the orbit path shows where the satellite is in the earth's shadow,  

DLR